Overview Statistics Trail Chart Weather Telemetry Raw packets
 

This is the latest recevied weather packets stored in our database for station/object IW1RCO-13. If no packets are shown the sender has not sent any weather packets the latest 10 day(s).

<< 22 23 24 25 26 27 28 >>
Time Temp. Humidity Pressure Rain* Wind** Luminosity Snow
1788500972 20° C 78% 1019.6 hPa - - - -
1788500668 19.44° C 79% 1019.5 hPa - - - -
1788500372 19.44° C 77% 1019.2 hPa - - - -
1788500068 18.89° C 81% 1019.5 hPa - - - -
1788499771 19.44° C 79% 1019.6 hPa - - - -
1788498267 18.89° C 75% 1019.6 hPa - - - -
1788497971 18.89° C 76% 1019.5 hPa - - - -
1788497667 18.89° C 78% 1019.7 hPa - - - -
1788497370 18.33° C 80% 1019.5 hPa - - - -
1788497067 18.89° C 80% 1019.5 hPa - - - -
1788496770 18.89° C 78% 1019.5 hPa - - - -
1788496466 18.89° C 78% 1019.6 hPa - - - -
1788496170 18.89° C 78% 1019.5 hPa - - - -
1788495873 19.44° C 77% 1019.5 hPa - - - -
1788495569 19.44° C 77% 1019.6 hPa - - - -
1788495273 18.89° C 77% 1019.5 hPa - - - -
1788494969 18.89° C 78% 1019.5 hPa - - - -
1788494673 18.89° C 78% 1018.9 hPa - - - -
1788494369 18.89° C 78% 1019.5 hPa - - - -
1788494072 18.89° C 77% 1019.5 hPa - - - -
1788493769 18.89° C 77% 1019.5 hPa - - - -
1788493472 19.44° C 75% 1019.2 hPa - - - -
1788493168 19.44° C 75% 1019.5 hPa - - - -
1788492872 18.89° C 77% 1019.6 hPa - - - -
1788489567 18.89° C 80% 1019.5 hPa - - - -

* Rain since midnight (hover to see other rain measurements)
** Current wind speed in m/s (hover to see current wind gust speed)